Find Globalstar M024

NORAD ID: 25883 Int'l Des: 1999-043 Owner: GLOBT Country: US Constellation: globalstar operational
MEOCIRCULAR

リアルタイム位置

3D地球を読み込み中...

Globalstar M024について

説明を読み込み中...

次回通過

Passes for default location (London). Set your location on the main map for personalized predictions.

高度履歴

Loading altitude history...

軌道要素

1 25883U 99043A 26139.84218029 -.00000069 00000-0 -14356-3 0 9995
2 25883 52.0036 341.0070 0000738 305.1356 68.2057 11.10167229152253
Epoch: May 19, 2026 • Age: 6 hours

現在のステータス

高度 2127.3 km
速度 6.85 km/s
衛星直下点 -51.42°S, 6.23°W
打ち上げ日 Aug 17, 1999
運用期間 26.7 years
タイプ communications

技術仕様

分類 Payload
質量 450.00 kg
乾燥質量 380.00 kg
総質量 450.00 kg
長さ 1.50 m
直径 0.60 m
スパン 12.00 m
形状 Box + 2 Pan
製造者 LOR
バスタイプ LS-400
フェーズステータス In Orbit
所有者/国 GLOBT/US

Most Searched